Time,TemperatureF,DewpointF,PressureIn,WindDirection,WindDirectionDegrees,WindSpeedMPH,WindSpeedGustMPH,Humidity,HourlyPrecipIn,Conditions,Clouds,dailyrainin,SoftwareType,DateUTC
2013-04-10 00:00:00,51.5,43.0,29.84,NNE,18,3.0,4.0,74,0.00,,,0.04,weatherlink.com 1.10,2013-04-10 04:00:00,
2013-04-10 00:15:00,51.1,43.0,29.84,NNE,15,2.0,5.0,74,0.00,,,0.00,weatherlink.com 1.10,2013-04-10 04:15:00,
2013-04-10 00:30:00,50.7,43.0,29.83,NE,48,2.0,5.0,74,0.00,,,0.00,weatherlink.com 1.10,2013-04-10 04:30:00,
2013-04-10 00:45:00,50.5,43.0,29.83,North,355,1.0,6.0,75,0.00,,,0.00,weatherlink.com 1.10,2013-04-10 04:45:00,
2013-04-10 01:00:00,50.1,43.0,29.84,SE,128,0.0,4.0,76,0.00,,,0.00,weatherlink.com 1.10,2013-04-10 05:00:00,
2013-04-10 01:15:00,49.8,43.0,29.86,SW,225,2.0,6.0,78,0.00,,,0.00,weatherlink.com 1.10,2013-04-10 05:15:00,
2013-04-10 01:30:00,49.2,43.0,29.86,SSW,204,3.0,8.0,80,0.00,,,0.00,weatherlink.com 1.10,2013-04-10 05:30:00,
2013-04-10 01:45:00,48.4,43.0,29.88,South,172,4.0,6.0,82,0.00,,,0.00,weatherlink.com 1.10,2013-04-10 05:45:00,
2013-04-10 02:00:00,48.3,43.0,29.88,North,5,1.0,3.0,83,0.00,,,0.00,weatherlink.com 1.10,2013-04-10 06:00:00,
2013-04-10 02:15:00,48.4,44.0,29.88,North,5,0.0,1.0,85,0.00,,,0.00,weatherlink.com 1.10,2013-04-10 06:15:00,
2013-04-10 02:30:00,48.1,44.0,29.89,North,5,0.0,1.0,86,0.00,,,0.00,weatherlink.com 1.10,2013-04-10 06:30:00,
2013-04-10 02:45:00,47.9,44.0,29.88,North,5,0.0,1.0,86,0.00,,,0.00,weatherlink.com 1.10,2013-04-10 06:45:00,
2013-04-10 03:00:00,47.7,45.0,29.89,North,5,0.0,1.0,89,0.02,,,0.02,weatherlink.com 1.10,2013-04-10 07:00:00,
2013-04-10 03:15:00,47.3,45.0,29.90,North,360,0.0,2.0,91,0.06,,,0.06,weatherlink.com 1.10,2013-04-10 07:15:00,
2013-04-10 03:30:00,47.1,45.0,29.86,SSW,192,1.0,3.0,91,0.14,,,0.14,weatherlink.com 1.10,2013-04-10 07:30:00,
2013-04-10 03:45:00,46.7,45.0,29.82,SSW,200,0.0,2.0,92,0.16,,,0.16,weatherlink.com 1.10,2013-04-10 07:45:00,
2013-04-10 04:00:00,46.5,45.0,29.83,SW,234,2.0,3.0,93,0.14,,,0.16,weatherlink.com 1.10,2013-04-10 08:00:00,
2013-04-10 04:15:00,46.5,45.0,29.84,SW,229,0.0,2.0,93,0.11,,,0.17,weatherlink.com 1.10,2013-04-10 08:15:00,
2013-04-10 04:31:00,46.5,45.0,29.83,ESE,116,2.0,2.0,94,0.03,,,0.17,weatherlink.com 1.10,2013-04-10 08:31:00,
2013-04-10 04:46:00,46.4,45.0,29.82,SE,133,0.0,3.0,94,0.01,,,0.17,weatherlink.com 1.10,2013-04-10 08:46:00,
2013-04-10 05:01:00,46.4,45.0,29.82,SE,145,0.0,1.0,94,0.01,,,0.17,weatherlink.com 1.10,2013-04-10 09:01:00,
2013-04-10 05:16:00,46.5,45.0,29.81,North,360,0.0,1.0,94,0.00,,,0.17,weatherlink.com 1.10,2013-04-10 09:16:00,
2013-04-10 05:31:00,46.5,45.0,29.82,North,360,0.0,0.0,94,0.00,,,0.17,weatherlink.com 1.10,2013-04-10 09:31:00,
2013-04-10 05:46:00,46.5,45.0,29.81,North,360,0.0,0.0,94,0.00,,,0.17,weatherlink.com 1.10,2013-04-10 09:46:00,
2013-04-10 06:01:00,46.5,45.0,29.82,North,360,0.0,0.0,94,0.00,,,0.17,weatherlink.com 1.10,2013-04-10 10:01:00,
2013-04-10 06:16:00,46.6,45.0,29.83,North,360,2.0,2.0,94,0.00,,,0.17,weatherlink.com 1.10,2013-04-10 10:16:00,
2013-04-10 06:31:00,46.7,45.0,29.83,North,360,0.0,2.0,94,0.00,,,0.17,weatherlink.com 1.10,2013-04-10 10:31:00,
2013-04-10 07:01:00,46.8,45.0,29.83,North,360,0.0,1.0,94,0.00,,,0.17,weatherlink.com 1.10,2013-04-10 11:01:00,
2013-04-10 07:31:00,47.0,45.0,29.83,North,360,0.0,0.0,94,0.00,,,0.17,weatherlink.com 1.10,2013-04-10 11:31:00,
2013-04-10 08:01:00,47.4,46.0,29.84,North,360,1.0,2.0,94,0.00,,,0.17,weatherlink.com 1.10,2013-04-10 12:01:00,
2013-04-10 08:46:00,48.5,46.0,29.85,North,351,2.0,4.0,92,0.00,,,0.17,weatherlink.com 1.10,2013-04-10 12:46:00,
2013-04-10 10:01:00,50.3,48.0,29.86,NNW,342,3.0,3.0,90,0.00,,,0.17,weatherlink.com 1.10,2013-04-10 14:01:00,
2013-04-10 10:46:00,51.8,48.0,29.86,North,355,0.0,4.0,86,0.00,,,0.17,weatherlink.com 1.10,2013-04-10 14:46:00,
2013-04-10 11:01:00,52.0,48.0,29.86,NE,34,1.0,2.0,87,0.00,,,0.17,weatherlink.com 1.10,2013-04-10 15:01:00,
2013-04-10 11:16:00,52.5,49.0,29.86,NNW,348,0.0,2.0,86,0.00,,,0.17,weatherlink.com 1.10,2013-04-10 15:16:00,
2013-04-10 11:31:00,53.4,50.0,29.86,SSE,163,1.0,3.0,87,0.00,,,0.17,weatherlink.com 1.10,2013-04-10 15:31:00,
2013-04-10 12:01:00,57.6,50.0,29.85,SE,129,1.0,4.0,77,0.00,,,0.17,weatherlink.com 1.10,2013-04-10 16:01:00,
2013-04-10 12:16:00,59.0,51.0,29.85,NW,307,1.0,4.0,75,0.00,,,0.17,weatherlink.com 1.10,2013-04-10 16:16:00,
2013-04-10 12:31:00,59.1,50.0,29.85,South,175,1.0,4.0,73,0.00,,,0.17,weatherlink.com 1.10,2013-04-10 16:31:00,
2013-04-10 12:46:00,59.4,50.0,29.85,NNE,13,3.0,4.0,72,0.00,,,0.17,weatherlink.com 1.10,2013-04-10 16:46:00,
2013-04-10 13:01:00,60.0,50.0,29.84,North,349,2.0,5.0,70,0.00,,,0.17,weatherlink.com 1.10,2013-04-10 17:01:00,
2013-04-10 13:16:00,61.2,51.0,29.84,NNW,336,3.0,3.0,70,0.00,,,0.17,weatherlink.com 1.10,2013-04-10 17:16:00,
2013-04-10 13:31:00,62.2,50.0,29.84,North,10,1.0,4.0,65,0.00,,,0.17,weatherlink.com 1.10,2013-04-10 17:31:00,
2013-04-10 13:47:00,60.7,50.0,29.84,NNE,15,2.0,3.0,68,0.00,,,0.17,weatherlink.com 1.10,2013-04-10 17:47:00,
2013-04-10 14:02:00,60.0,49.0,29.85,North,355,3.0,4.0,68,0.00,,,0.17,weatherlink.com 1.10,2013-04-10 18:02:00,
2013-04-10 14:17:00,59.6,49.0,29.85,NNE,17,3.0,5.0,69,0.00,,,0.17,weatherlink.com 1.10,2013-04-10 18:17:00,
2013-04-10 14:32:00,59.2,50.0,29.84,NW,317,3.0,5.0,71,0.00,,,0.17,weatherlink.com 1.10,2013-04-10 18:32:00,
2013-04-10 14:47:00,58.9,49.0,29.83,North,351,4.0,5.0,71,0.00,,,0.17,weatherlink.com 1.10,2013-04-10 18:47:00,
2013-04-10 15:02:00,58.7,50.0,29.84,NNE,22,2.0,7.0,72,0.00,,,0.17,weatherlink.com 1.10,2013-04-10 19:02:00,
2013-04-10 15:17:00,58.4,49.0,29.83,North,355,3.0,6.0,72,0.00,,,0.17,weatherlink.com 1.10,2013-04-10 19:17:00,
2013-04-10 15:32:00,58.8,50.0,29.79,NNW,340,8.0,8.0,73,0.00,,,0.17,weatherlink.com 1.10,2013-04-10 19:32:00,
2013-04-10 15:47:00,60.9,51.0,29.75,North,5,2.0,8.0,69,0.00,,,0.17,weatherlink.com 1.10,2013-04-10 19:47:00,
2013-04-10 16:02:00,61.8,50.0,29.77,North,360,3.0,5.0,66,0.00,,,0.17,weatherlink.com 1.10,2013-04-10 20:02:00,
2013-04-10 16:17:00,61.6,50.0,29.78,North,351,1.0,5.0,67,0.00,,,0.17,weatherlink.com 1.10,2013-04-10 20:17:00,
2013-04-10 16:32:00,61.3,50.0,29.78,ENE,61,3.0,4.0,66,0.00,,,0.17,weatherlink.com 1.10,2013-04-10 20:32:00,
2013-04-10 16:47:00,60.7,50.0,29.79,NNW,337,1.0,5.0,67,0.00,,,0.17,weatherlink.com 1.10,2013-04-10 20:47:00,
2013-04-10 17:02:00,60.2,50.0,29.79,North,5,2.0,3.0,68,0.00,,,0.17,weatherlink.com 1.10,2013-04-10 21:02:00,
2013-04-10 17:17:00,59.8,50.0,29.79,North,360,3.0,6.0,70,0.00,,,0.17,weatherlink.com 1.10,2013-04-10 21:17:00,
2013-04-10 17:32:00,59.4,50.0,29.79,North,5,3.0,5.0,71,0.00,,,0.17,weatherlink.com 1.10,2013-04-10 21:32:00,
2013-04-10 17:47:00,58.9,50.0,29.77,NE,48,1.0,3.0,72,0.00,,,0.17,weatherlink.com 1.10,2013-04-10 21:47:00,
2013-04-10 18:02:00,58.6,50.0,29.76,North,360,3.0,5.0,73,0.00,,,0.17,weatherlink.com 1.10,2013-04-10 22:02:00,
2013-04-10 18:17:00,58.5,50.0,29.76,North,9,1.0,3.0,74,0.00,,,0.17,weatherlink.com 1.10,2013-04-10 22:17:00,
2013-04-10 18:32:00,58.2,51.0,29.76,North,9,0.0,1.0,76,0.00,,,0.17,weatherlink.com 1.10,2013-04-10 22:32:00,
2013-04-10 18:47:00,57.8,50.0,29.75,North,9,1.0,1.0,76,0.00,,,0.17,weatherlink.com 1.10,2013-04-10 22:47:00,
2013-04-10 19:17:00,56.9,52.0,29.77,ESE,111,1.0,2.0,84,0.03,,,0.20,weatherlink.com 1.10,2013-04-10 23:17:00,
2013-04-10 19:47:00,54.7,52.0,29.77,SSW,211,1.0,2.0,91,0.20,,,0.37,weatherlink.com 1.10,2013-04-10 23:47:00,
2013-04-10 20:02:00,54.0,52.0,29.77,SSW,200,1.0,3.0,92,0.27,,,0.44,weatherlink.com 1.10,2013-04-11 00:02:00,
2013-04-10 20:32:00,52.3,50.0,29.78,SE,143,1.0,10.0,92,0.34,,,0.62,weatherlink.com 1.10,2013-04-11 00:32:00,
2013-04-10 20:47:00,51.2,49.0,29.80,SW,223,3.0,6.0,92,0.26,,,0.64,weatherlink.com 1.10,2013-04-11 00:47:00,
2013-04-10 21:02:00,50.9,49.0,29.80,SSE,152,0.0,2.0,93,0.20,,,0.64,weatherlink.com 1.10,2013-04-11 01:02:00,
2013-04-10 21:17:00,50.8,49.0,29.81,SSE,152,0.0,1.0,93,0.09,,,0.64,weatherlink.com 1.10,2013-04-11 01:17:00,
2013-04-10 21:32:00,50.6,49.0,29.79,SSE,152,0.0,1.0,93,0.02,,,0.64,weatherlink.com 1.10,2013-04-11 01:32:00,
2013-04-10 21:47:00,50.5,49.0,29.77,SW,232,0.0,1.0,93,0.00,,,0.64,weatherlink.com 1.10,2013-04-11 01:47:00,
2013-04-10 22:02:00,50.4,49.0,29.77,SW,232,0.0,1.0,94,0.00,,,0.64,weatherlink.com 1.10,2013-04-11 02:02:00,
2013-04-10 22:17:00,50.4,49.0,29.77,SW,232,0.0,0.0,94,0.00,,,0.64,weatherlink.com 1.10,2013-04-11 02:17:00,
2013-04-10 22:32:00,50.5,49.0,29.77,North,349,1.0,4.0,94,0.00,,,0.64,weatherlink.com 1.10,2013-04-11 02:32:00,
2013-04-10 22:47:00,50.6,49.0,29.77,North,349,1.0,3.0,94,0.00,,,0.64,weatherlink.com 1.10,2013-04-11 02:47:00,
2013-04-10 23:02:00,50.6,49.0,29.78,NNW,327,2.0,3.0,94,0.00,,,0.64,weatherlink.com 1.10,2013-04-11 03:02:00,
2013-04-10 23:17:00,50.5,49.0,29.79,North,355,1.0,3.0,94,0.00,,,0.64,weatherlink.com 1.10,2013-04-11 03:17:00,
2013-04-10 23:32:00,50.5,49.0,29.79,North,355,3.0,3.0,94,0.00,,,0.64,weatherlink.com 1.10,2013-04-11 03:32:00,
2013-04-10 23:47:00,50.4,49.0,29.79,North,355,1.0,3.0,94,0.00,,,0.64,weatherlink.com 1.10,2013-04-11 03:47:00,